EW0259 Weather Reports


time (UTC)temp
C
wind
direction
speed
KPH
gust
KPH
rain 1hr
cm
rain 24hr
cm
rain mn
cm
humidity
%
barometer
mb
20240614105239 7 227 0.0 0.0 0.00 0.00 0.00 82 1022.9
20240614104739 7 227 0.0 0.0 0.00 0.00 0.00 81 1022.8
20240614104239 7 227 0.0 0.0 0.00 0.00 0.00 81 1022.9
20240614103742 7 227 0.0 0.0 0.00 0.00 0.00 81 1023.0
20240614103244 7 227 0.0 0.0 0.00 0.00 0.00 81 1022.9
20240614102733 7 227 1.6 0.0 0.00 0.00 0.00 80 1022.9
20240614102254 7 227 0.0 0.0 0.00 0.00 0.00 80 1022.9
20240614101735 7 227 0.0 0.0 0.00 0.00 0.00 80 1022.9
20240614101236 7 227 0.0 0.0 0.00 0.00 0.00 80 1022.8
20240614100735 7 227 0.0 0.0 0.00 0.00 0.00 80 1022.7
20240614100234 7 227 0.0 0.0 0.00 0.00 0.00 80 1022.7
20240614095746 7 227 0.0 0.0 0.00 0.00 0.00 80 1022.8
20240614095226 7 227 0.0 0.0 0.00 0.00 0.00 79 1022.7
20240614094726 7 227 0.0 0.0 0.00 0.00 0.00 79 1022.6
20240614094225 8 227 0.0 0.0 0.00 0.00 0.00 79 1022.6
20240614093726 8 227 0.0 0.0 0.00 0.00 0.00 78 1022.6
20240614093248 8 227 0.0 0.0 0.00 0.00 0.00 78 1022.6
20240614092739 8 227 0.0 0.0 0.00 0.00 0.00 78 1022.5
20240614092237 8 227 0.0 0.0 0.00 0.00 0.00 78 1022.6
20240614091740 8 227 0.0 0.0 0.00 0.00 0.00 78 1022.5
20240614091240 8 227 0.0 0.0 0.00 0.00 0.00 77 1022.5
20240614090740 8 227 0.0 0.0 0.00 0.00 0.00 77 1022.6
20240614090242 8 227 0.0 0.0 0.00 0.00 0.00 77 1022.5
20240614085731 8 227 0.0 0.0 0.00 0.00 0.00 76 1022.4
20240614085230 8 227 0.0 0.0 0.00 0.00 0.00 76 1022.4
20240614084728 8 227 0.0 0.0 0.00 0.00 0.00 76 1022.4
20240614084227 9 227 0.0 0.0 0.00 0.00 0.00 75 1022.3
20240614083746 9 227 0.0 0.0 0.00 0.00 0.00 75 1022.2
20240614083247 9 227 0.0 0.0 0.00 0.00 0.00 74 1022.0
20240614082737 9 227 0.0 0.0 0.00 0.00 0.00 73 1022.1
20240614082259 10 227 0.0 0.0 0.00 0.00 0.00 73 1022.1
20240614081800 10 227 0.0 0.0 0.00 0.00 0.00 73 1022.0
20240614081238 10 227 0.0 0.0 0.00 0.00 0.00 72 1022.0
20240614080737 10 227 0.0 0.0 0.00 0.00 0.00 71 1022.0
20240614080300 10 227 0.0 0.0 0.00 0.00 0.00 70 1022.0
20240614075728 11 227 0.0 0.0 0.00 0.00 0.00 69 1022.0
20240614075246 11 227 0.0 0.0 0.00 0.00 0.00 68 1022.0
20240614074725 11 227 0.0 0.0 0.00 0.00 0.00 68 1021.9
20240614074231 11 227 0.0 0.0 0.00 0.00 0.00 67 1021.9
20240614073731 11 227 0.0 0.0 0.00 0.00 0.00 66 1021.8
20240614073313 11 227 0.0 0.0 0.00 0.00 0.00 65 1021.9
20240614072740 12 227 0.0 0.0 0.00 0.00 0.00 64 1021.8
20240614072241 12 227 0.0 0.0 0.00 0.00 0.00 63 1021.8
20240614071800 12 227 0.0 0.0 0.00 0.00 0.00 63 1021.7
20240614071236 12 227 0.0 0.0 0.00 0.00 0.00 62 1021.7
20240614070735 12 97 0.0 0.0 0.00 0.00 0.00 61 1021.6
20240614070247 12 8 0.0 0.0 0.00 0.00 0.00 61 1021.6
20240614065758 12 0 0.0 0.0 0.00 0.00 0.00 60 1021.6
20240614065238 13 215 3.2 0.0 0.00 0.00 0.00 60 1021.5
20240614064736 13 355 1.6 0.0 0.00 0.00 0.00 59 1021.5
20240614064235 13 243 3.2 0.0 0.00 0.00 0.00 58 1021.4
20240614063734 13 297 1.6 0.0 0.00 0.00 0.00 57 1021.4
20240614063254 13 157 1.6 0.0 0.00 0.00 0.00 57 1021.4
20240614062742 13 145 0.0 0.0 0.00 0.00 0.00 56 1021.2
20240614062241 13 117 0.0 0.0 0.00 0.00 0.00 55 1021.2
20240614061742 13 76 1.6 0.0 0.00 0.00 0.00 55 1021.1
20240614061226 13 143 0.0 0.0 0.00 0.00 0.00 54 1021.0
20240614060729 13 210 3.2 0.0 0.00 0.00 0.00 54 1020.9
20240614060251 13 210 1.6 0.0 0.00 0.00 0.00 53 1020.8
20240614055741 13 44 0.0 0.0 0.00 0.00 0.00 53 1020.7
20240614055242 13 285 1.6 0.0 0.00 0.00 0.00 53 1020.7
20240614054741 13 340 0.0 0.0 0.00 0.00 0.00 53 1020.7
20240614054241 14 142 1.6 0.0 0.00 0.00 0.00 53 1020.6
20240614053801 14 130 1.6 0.0 0.00 0.00 0.00 54 1020.5
20240614053242 14 130 0.0 0.0 0.00 0.00 0.00 54 1020.5
20240614052752 14 101 3.2 0.0 0.00 0.00 0.00 53 1020.5
20240614052231 15 247 1.6 0.0 0.00 0.00 0.00 53 1020.5
20240614051750 15 275 3.2 0.0 0.00 0.00 0.00 52 1020.4
20240614051227 15 221 1.6 0.0 0.00 0.00 0.00 52 1020.4
20240614050727 15 240 4.8 0.0 0.00 0.00 0.00 52 1020.3
20240614050249 15 268 1.6 0.0 0.00 0.00 0.00 51 1020.3
20240614045759 15 262 6.4 0.0 0.00 0.00 0.00 52 1020.3
20240614045238 15 254 0.0 0.0 0.00 0.00 0.00 51 1020.2
20240614044759 15 227 1.6 0.0 0.00 0.00 0.00 52 1020.2
20240614044239 15 227 1.6 0.0 0.00 0.00 0.00 53 1020.0
20240614043759 15 327 0.0 0.0 0.00 0.00 0.00 53 1019.8
20240614043238 15 283 1.6 0.0 0.00 0.00 0.00 53 1019.8
20240614042732 16 280 4.8 0.0 0.00 0.00 0.00 52 1019.7
20240614042233 16 68 1.6 0.0 0.00 0.00 0.00 53 1019.6
20240614041753 16 150 3.2 0.0 0.00 0.00 0.00 51 1019.5
20240614041230 16 267 0.0 0.0 0.00 0.00 0.00 51 1019.5
20240614040729 16 281 6.4 0.0 0.00 0.00 0.00 51 1019.5
20240614040251 16 74 1.6 0.0 0.00 0.00 0.00 50 1019.5
20240614035800 17 306 1.6 0.0 0.00 0.00 0.00 51 1019.4
20240614035238 17 251 1.6 0.0 0.00 0.00 0.00 50 1019.5
20240614034800 17 282 8.0 0.0 0.00 0.00 0.00 50 1019.4
20240614034237 17 241 0.0 0.0 0.00 0.00 0.00 50 1019.6
20240614033736 17 242 3.2 0.0 0.00 0.00 0.00 50 1019.3
20240614033237 17 240 0.0 0.0 0.00 0.00 0.00 50 1019.3
20240614032749 17 305 4.8 0.0 0.00 0.00 0.00 49 1019.5
20240614032228 17 100 0.0 0.0 0.00 0.00 0.00 51 1019.4
20240614031726 17 133 4.8 0.0 0.00 0.00 0.00 53 1019.5
20240614031249 18 268 4.8 0.0 0.00 0.00 0.00 53 1019.4
20240614030748 18 314 1.6 0.0 0.00 0.00 0.00 53 1019.4
20240614030251 18 276 0.0 0.0 0.00 0.00 0.00 54 1019.5
20240614025741 18 276 0.0 0.0 0.00 0.00 0.00 53 1019.4
20240614025241 18 276 0.0 0.0 0.00 0.00 0.00 53 1019.4
20240614024725 18 276 0.0 0.0 0.00 0.00 0.00 53 1019.5
20240614024226 18 219 3.2 0.0 0.00 0.00 0.00 52 1019.5
20240614023728 18 273 0.0 0.0 0.00 0.00 0.00 51 1019.5
20240614023249 18 296 1.6 0.0 0.00 0.00 0.00 51 1019.4
20240614022740 18 269 8.0 0.0 0.00 0.00 0.00 49 1019.3
20240614022239 19 94 1.6 0.0 0.00 0.00 0.00 48 1019.4
20240614021738 19 94 0.0 0.0 0.00 0.00 0.00 47 1019.5
20240614021258 19 357 0.0 0.0 0.00 0.00 0.00 46 1019.4
20240614020737 19 357 3.2 0.0 0.00 0.00 0.00 45 1019.5
20240614020236 20 245 0.0 0.0 0.00 0.00 0.00 44 1019.5
20240614015747 19 245 0.0 0.0 0.00 0.00 0.00 43 1019.4
20240614015246 20 182 3.2 0.0 0.00 0.00 0.00 42 1019.4
20240614014744 20 51 0.0 0.0 0.00 0.00 0.00 42 1019.4
20240614014304 19 174 6.4 0.0 0.00 0.00 0.00 42 1019.3
20240614013802 19 227 1.6 0.0 0.00 0.00 0.00 42 1019.3
20240614013241 19 227 1.6 0.0 0.00 0.00 0.00 43 1019.4
20240614012732 19 279 3.2 0.0 0.00 0.00 0.00 42 1019.3
20240614012233 19 348 1.6 0.0 0.00 0.00 0.00 43 1019.4
20240614011752 19 313 3.2 0.0 0.00 0.00 0.00 42 1019.4
20240614011231 19 222 4.8 0.0 0.00 0.00 0.00 43 1019.4
20240614010736 19 212 1.6 0.0 0.00 0.00 0.00 43 1019.4
20240614010258 19 212 1.6 0.0 0.00 0.00 0.00 43 1019.5
20240614005747 19 224 0.0 0.0 0.00 0.00 0.00 44 1019.4
20240614005223 19 267 0.0 0.0 0.00 0.00 0.00 44 1019.4
20240614004744 19 284 4.8 0.0 0.00 0.00 0.00 45 1019.5
20240614004242 19 270 1.6 0.0 0.00 0.00 0.00 42 1019.4
20240614003740 19 248 0.0 0.0 0.00 0.00 0.00 41 1019.3
20240614003240 19 284 0.0 0.0 0.00 0.00 0.00 41 1019.2
20240614002730 19 240 3.2 0.0 0.00 0.00 0.00 41 1019.3
20240614002231 19 81 0.0 0.0 0.00 0.00 0.00 42 1019.3
20240614001731 19 258 4.8 0.0 0.00 0.00 0.00 40 1019.4
20240614001253 19 271 4.8 0.0 0.00 0.00 0.00 41 1019.4
20240614000731 19 110 3.2 0.0 0.00 0.00 0.00 42 1019.4
20240614000253 19 206 0.0 0.0 0.00 0.00 0.00 42 1019.5
20240613235804 19 193 4.8 0.0 0.00 0.00 0.00 43 1019.4
20240613235223 19 295 4.8 0.0 0.00 0.00 0.00 44 1019.5
20240613234725 18 95 3.2 0.0 0.00 0.00 0.00 44 1019.5
20240613234228 18 272 3.2 0.0 0.00 0.00 0.00 42 1019.5
20240613233727 18 261 3.2 0.0 0.00 0.00 0.00 43 1019.6
20240613233247 18 243 0.0 0.0 0.00 0.00 0.00 43 1019.4
20240613232737 18 282 6.4 0.0 0.00 0.00 0.00 43 1019.4
20240613232237 19 71 0.0 0.0 0.00 0.00 0.00 43 1019.5
20240613231737 19 249 4.8 0.0 0.00 0.00 0.00 41 1019.4
20240613231236 19 354 3.2 0.0 0.00 0.00 0.00 41 1019.4
20240613230736 18 353 6.4 0.0 0.00 0.00 0.00 41 1019.7
20240613230235 18 242 1.6 0.0 0.00 0.00 0.00 40 1019.6
20240613225725 18 238 3.2 0.0 0.00 0.00 0.00 40 1019.6
20240613225307 18 240 6.4 0.0 0.00 0.00 0.00 41 1019.5
20240613224744 18 343 1.6 0.0 0.00 0.00 0.00 42 1019.5
20240613224243 18 278 0.0 0.0 0.00 0.00 0.00 40 1019.4
20240613223742 18 235 0.0 0.0 0.00 0.00 0.00 39 1019.4
20240613223244 18 220 0.0 0.0 0.00 0.00 0.00 40 1019.5
20240613222733 18 227 3.2 0.0 0.00 0.00 0.00 42 1019.6
20240613222238 18 276 0.0 0.0 0.00 0.00 0.00 42 1019.5
20240613221738 18 258 3.2 0.0 0.00 0.00 0.00 42 1019.7
20240613221238 18 213 1.6 0.0 0.00 0.00 0.00 42 1019.8
20240613220736 18 320 3.2 0.0 0.00 0.00 0.00 43 1019.6
20240613220238 18 314 4.8 0.0 0.00 0.00 0.00 46 1019.6
20240613215728 18 355 3.2 0.0 0.00 0.00 0.00 44 1019.7
20240613215227 18 21 0.0 0.0 0.00 0.00 0.00 44 1019.6
20240613214744 18 242 8.0 0.0 0.00 0.00 0.00 45 1019.7
20240613214305 18 342 4.8 0.0 0.00 0.00 0.00 46 1019.7
20240613213742 18 182 1.6 0.0 0.00 0.00 0.00 46 1019.8
20240613213242 18 219 0.0 0.0 0.00 0.00 0.00 46 1019.8
20240613212753 18 270 1.6 0.0 0.00 0.00 0.00 46 1020.0
20240613212252 18 107 0.0 0.0 0.00 0.00 0.00 46 1019.9
20240613211732 18 336 4.8 0.0 0.00 0.00 0.00 47 1020.0
20240613211232 18 323 1.6 0.0 0.00 0.00 0.00 50 1020.1
20240613210730 18 285 3.2 0.0 0.00 0.00 0.00 51 1020.2
20240613210311 17 305 1.6 0.0 0.00 0.00 0.00 50 1020.2
20240613205801 17 342 3.2 0.0 0.00 0.00 0.00 51 1020.2
20240613205240 17 240 3.2 0.0 0.00 0.00 0.00 50 1020.3
20240613204800 18 303 3.2 0.0 0.00 0.00 0.00 50 1020.3
20240613204238 17 314 4.8 0.0 0.00 0.00 0.00 51 1020.2
20240613203743 17 302 1.6 0.0 0.00 0.00 0.00 51 1020.3
20240613203246 18 353 6.4 0.0 0.00 0.00 0.00 51 1020.4
20240613202733 18 83 3.2 0.0 0.00 0.00 0.00 51 1020.4
20240613202231 18 20 3.2 0.0 0.00 0.00 0.00 51 1020.4
20240613201730 18 3 4.8 0.0 0.00 0.00 0.00 53 1020.3
20240613201249 18 297 3.2 0.0 0.00 0.00 0.00 53 1020.4
20240613200725 17 3 6.4 0.0 0.00 0.00 0.00 53 1020.5
20240613200246 17 293 4.8 0.0 0.00 0.00 0.00 53 1020.5
20240613195736 17 249 4.8 0.0 0.00 0.00 0.00 53 1020.6
20240613195254 17 255 3.2 0.0 0.00 0.00 0.00 53 1020.6
20240613194736 17 338 12.9 0.0 0.00 0.00 0.00 54 1020.7
20240613194235 17 17 8.0 0.0 0.00 0.00 0.00 53 1020.7
20240613193736 17 350 4.8 0.0 0.00 0.00 0.00 54 1020.7
20240613193237 17 231 9.7 0.0 0.00 0.00 0.00 53 1020.8
20240613192748 17 302 3.2 0.0 0.00 0.00 0.00 54 1020.8
20240613192227 17 311 3.2 0.0 0.00 0.00 0.00 54 1020.8
20240613191727 17 243 1.6 0.0 0.00 0.00 0.00 53 1020.8
20240613191230 17 238 4.8 0.0 0.00 0.00 0.00 55 1020.8
20240613190752 17 337 8.0 0.0 0.00 0.00 0.00 55 1020.9
20240613190252 17 355 1.6 0.0 0.00 0.00 0.00 56 1020.9
20240613185742 17 315 1.6 0.0 0.00 0.00 0.00 55 1020.9
20240613185242 17 20 3.2 0.0 0.00 0.00 0.00 56 1020.9
20240613184740 17 0 1.6 0.0 0.00 0.00 0.00 56 1021.0
20240613184240 17 319 6.4 0.0 0.00 0.00 0.00 58 1021.0
20240613183800 17 0 1.6 0.0 0.00 0.00 0.00 58 1020.9
20240613183239 16 229 1.6 0.0 0.00 0.00 0.00 60 1020.9
20240613182729 16 350 9.7 0.0 0.00 0.00 0.00 58 1020.9
20240613182252 16 239 8.0 0.0 0.00 0.00 0.00 58 1021.0
20240613181731 16 335 4.8 0.0 0.00 0.00 0.00 58 1021.1
20240613181231 16 286 3.2 0.0 0.00 0.00 0.00 58 1021.2
20240613180732 16 0 1.6 0.0 0.00 0.00 0.00 59 1021.2
20240613180254 16 319 3.2 0.0 0.00 0.00 0.00 58 1021.2
20240613175742 16 6 3.2 0.0 0.00 0.00 0.00 60 1021.2
20240613175241 15 352 1.6 0.0 0.00 0.00 0.00 60 1021.1
20240613174739 15 300 3.2 0.0 0.00 0.00 0.00 60 1021.2
20240613174243 15 326 4.8 0.0 0.00 0.00 0.00 60 1021.3
20240613173741 15 0 4.8 0.0 0.00 0.00 0.00 61 1021.4
20240613173243 15 286 11.3 0.0 0.00 0.00 0.00 61 1021.4
20240613172732 15 359 3.2 0.0 0.00 0.00 0.00 62 1021.4
20240613172232 15 312 4.8 0.0 0.00 0.00 0.00 62 1021.5
20240613171730 15 314 4.8 0.0 0.00 0.00 0.00 62 1021.5
20240613171250 15 268 6.4 0.0 0.00 0.00 0.00 62 1021.6
20240613170729 14 222 4.8 0.0 0.00 0.00 0.00 62 1021.6
20240613170311 14 245 9.7 0.0 0.00 0.00 0.00 62 1021.6
20240613165740 14 348 3.2 0.0 0.00 0.00 0.00 63 1021.7
20240613165240 14 273 1.6 0.0 0.00 0.00 0.00 63 1021.7
20240613164741 14 7 0.0 0.0 0.00 0.00 0.00 63 1021.7
20240613164242 14 347 1.6 0.0 0.00 0.00 0.00 65 1021.7
20240613163741 14 226 4.8 0.0 0.00 0.00 0.00 64 1021.8
20240613163242 13 327 4.8 0.0 0.00 0.00 0.00 65 1021.7
20240613162752 13 313 3.2 0.0 0.00 0.00 0.00 64 1021.6
20240613162231 13 320 6.4 0.0 0.00 0.00 0.00 65 1021.6
20240613161735 13 232 3.2 0.0 0.00 0.00 0.00 66 1021.6
20240613161233 13 313 3.2 0.0 0.00 0.00 0.00 66 1021.7
20240613160755 13 230 3.2 0.0 0.00 0.00 0.00 66 1021.7
20240613160254 13 354 4.8 0.0 0.00 0.00 0.00 66 1021.7
20240613155723 13 33 0.0 0.0 0.00 0.00 0.00 67 1021.6
20240613155225 12 335 1.6 0.0 0.00 0.00 0.00 67 1021.7
20240613154747 12 318 3.2 0.0 0.00 0.00 0.00 67 1021.7
20240613154306 12 351 8.0 0.0 0.00 0.00 0.00 68 1021.8
20240613153804 12 310 1.6 0.0 0.00 0.00 0.00 68 1021.7
20240613153306 12 320 3.2 0.0 0.00 0.00 0.00 68 1021.9
20240613152756 12 292 3.2 0.0 0.00 0.00 0.00 68 1021.9
20240613152235 12 241 3.2 0.0 0.00 0.00 0.00 68 1021.9
20240613151736 12 269 0.0 0.0 0.00 0.00 0.00 68 1021.9
20240613151234 12 257 0.0 0.0 0.00 0.00 0.00 69 1021.9
20240613150733 12 352 0.0 0.0 0.00 0.00 0.00 69 1021.9
20240613150254 12 353 0.0 0.0 0.00 0.00 0.00 70 1021.9
20240613145723 12 77 0.0 0.0 0.00 0.00 0.00 72 1021.9
20240613145306 12 336 0.0 0.0 0.00 0.00 0.00 70 1021.8
20240613144744 12 53 0.0 0.0 0.00 0.00 0.00 71 1021.8
20240613144242 12 53 0.0 0.0 0.00 0.00 0.00 72 1021.8
20240613143742 11 53 0.0 0.0 0.00 0.00 0.00 73 1021.8
20240613143243 11 328 0.0 0.0 0.00 0.00 0.00 74 1021.8
20240613142736 11 328 0.0 0.0 0.00 0.00 0.00 73 1021.9
20240613142238 11 343 0.0 0.0 0.00 0.00 0.00 73 1021.8
20240613141737 11 343 0.0 0.0 0.00 0.00 0.00 74 1021.8
20240613141258 11 343 0.0 0.0 0.00 0.00 0.00 73 1021.7
20240613140737 11 343 0.0 0.0 0.00 0.00 0.00 72 1021.6
20240613140237 11 343 0.0 0.0 0.00 0.00 0.00 75 1021.8
20240613135748 11 342 0.0 0.0 0.00 0.00 0.00 76 1021.8
20240613135247 11 342 0.0 0.0 0.00 0.00 0.00 79 1022.0
20240613134727 10 342 0.0 0.0 0.00 0.00 0.00 81 1022.1
20240613134227 10 343 0.0 0.0 0.00 0.00 0.00 82 1022.2
20240613133806 9 342 0.0 0.0 0.00 0.00 0.00 83 1022.2
20240613133306 8 342 1.6 0.0 0.00 0.00 0.00 85 1022.2
20240613132735 8 343 0.0 0.0 0.00 0.00 0.00 84 1022.2
20240613132237 7 343 0.0 0.0 0.00 0.00 0.00 86 1022.2
20240613131735 7 343 0.0 0.0 0.00 0.00 0.00 85 1022.2
20240613131233 7 343 0.0 0.0 0.00 0.00 0.00 86 1022.3
20240613130732 7 343 0.0 0.0 0.00 0.00 0.00 85 1022.2
20240613130252 7 343 0.0 0.0 0.00 0.00 0.00 85 1022.2
20240613125743 7 343 0.0 0.0 0.00 0.00 0.00 84 1022.1
20240613125225 7 343 1.6 0.0 0.00 0.00 0.00 85 1022.2
20240613124745 7 343 0.0 0.0 0.00 0.00 0.00 84 1022.2
20240613124244 7 343 0.0 0.0 0.00 0.00 0.00 85 1022.3
20240613123743 7 343 0.0 0.0 0.00 0.00 0.00 85 1022.3
20240613123306 7 343 0.0 0.0 0.00 0.00 0.00 85 1022.2
20240613122736 7 343 0.0 0.0 0.00 0.00 0.00 84 1022.2
20240613122237 7 343 0.0 0.0 0.00 0.00 0.00 84 1022.2
20240613121738 7 343 0.0 0.0 0.00 0.00 0.00 84 1022.2
20240613121237 7 343 0.0 0.0 0.00 0.00 0.00 84 1022.2
20240613120759 7 343 0.0 0.0 0.00 0.00 0.00 83 1022.2
20240613120259 7 343 0.0 0.0 0.00 0.00 0.00 82 1022.1
20240613115727 7 343 0.0 0.0 0.00 0.00 0.00 82 1022.0
20240613115226 7 343 0.0 0.0 0.00 0.00 0.00 81 1022.1
20240613114726 7 343 0.0 0.0 0.00 0.00 0.00 81 1022.1
20240613114225 7 343 0.0 0.0 0.00 0.00 0.00 81 1022.1
20240613113726 7 343 0.0 0.0 0.00 0.00 0.00 81 1022.1
20240613113307 7 343 0.0 0.0 0.00 0.00 0.00 81 1022.1
20240613112736 8 343 0.0 0.0 0.00 0.00 0.00 81 1022.0
20240613112236 8 343 0.0 0.0 0.00 0.00 0.00 81 1022.0